GFSGL_925_spd_021.txt.gz
Wind_Speed
33 33 31 31 29 29 27 25 23 19 19 16 20 20 20 20 13 11 11 10 9 11 12 10 9 9 9 11 13 11 11 12 13 17 14 17 13 16 20 19 22 21 21
35 33 33 31 32 31 31 28 27 24 23 23 23 23 25 27 32 24 18 9 15 15 15 12 11 11 11 11 12 14 15 16 17 17 18 19 17 18 18 19 21 20 23
35 34 33 33 34 34 33 30 29 29 30 29 29 31 33 34 29 19 18 17 17 17 15 14 13 13 11 13 14 16 16 15 14 18 21 21 19 18 24 21 16 21 21
35 34 33 34 33 33 32 32 31 33 34 35 35 35 35 32 25 20 19 18 18 19 18 14 14 16 13 15 16 16 17 17 16 17 22 18 20 21 27 16 20 20 24
33 33 32 31 31 30 31 30 31 31 33 34 35 35 31 28 22 20 20 19 17 18 18 18 17 18 20 17 15 18 15 16 20 20 19 19 22 16 22 22 20 20 21
30 31 30 30 30 30 29 28 29 29 30 31 30 32 31 27 20 24 18 17 18 19 20 18 16 19 19 20 20 18 19 18 19 18 20 21 21 20 19 18 19 21 19
26 28 28 30 30 29 27 28 29 29 28 28 31 29 26 19 16 21 21 18 18 21 21 19 18 19 18 18 17 16 17 18 18 17 17 20 20 17 19 21 21 22 24
27 25 27 26 26 26 27 27 27 28 30 29 29 28 23 19 15 19 19 21 21 19 19 21 22 20 15 19 18 17 16 17 17 16 19 19 18 16 17 21 24 26 27
25 25 25 26 26 26 28 29 30 31 30 29 29 27 26 22 18 19 19 18 18 20 23 22 19 16 17 20 18 14 15 17 17 19 19 19 19 22 21 19 20 21 19
27 26 25 26 26 26 25 23 22 23 26 24 23 25 27 23 19 20 21 18 19 23 24 19 17 16 17 19 13 11 15 17 15 15 12 17 22 24 23 25 24 21 21
26 24 22 22 21 20 21 21 22 23 21 22 18 19 23 19 19 19 22 20 21 17 16 14 14 18 15 17 14 10 13 13 11 14 18 21 19 19 18 13 14 18 25
23 24 22 20 18 17 19 17 18 17 17 16 16 17 18 16 17 19 20 22 20 13 11 14 16 19 15 12 10 12 14 13 13 17 19 18 18 17 18 16 21 25 26
21 20 19 17 15 14 15 16 17 16 15 15 15 14 12 12 12 15 14 12 14 14 11 15 14 11 10 10 12 12 11 10 14 17 16 16 17 17 19 22 22 21 23
18 16 15 17 16 14 14 13 12 15 15 11 9 10 11 11 12 9 9 13 14 11 14 6 6 6 8 6 5 10 9 11 11 13 16 15 17 18 19 20 22 22 23
18 18 18 17 14 13 11 8 9 8 7 6 4 5 6 12 13 10 12 14 12 11 14 7 8 12 13 11 10 12 13 13 12 12 15 16 18 18 19 19 20 22 21
20 19 19 17 16 16 16 12 12 9 8 6 4 5 9 9 15 16 13 10 9 8 6 11 15 14 4 9 16 15 10 9 11 11 14 17 17 17 17 18 18 19 20
16 20 17 17 16 15 12 11 10 4 4 5 5 6 8 11 13 14 13 10 8 6 8 13 15 8 4 7 10 11 11 10 7 12 14 15 15 15 16 17 17 18 19
13 14 14 14 14 13 12 11 9 9 8 6 4 7 8 10 10 10 8 7 5 6 9 13 8 5 8 8 9 10 10 10 11 12 12 13 13 14 15 16 17 17 20
14 14 13 12 11 9 8 6 8 11 10 13 7 8 12 12 11 10 9 7 8 6 6 6 7 8 8 7 7 8 8 10 10 11 11 11 12 13 15 15 17 17 19
8 9 9 12 11 9 7 8 8 12 19 15 11 11 11 10 8 9 8 8 7 5 3 5 5 5 6 6 7 8 9 10 9 8 9 10 11 13 14 15 16 18 18
11 9 5 10 11 10 9 8 7 9 16 22 18 23 19 15 13 13 12 9 7 6 4 4 4 5 6 7 8 8 9 8 6 7 8 9 11 12 13 14 16 16 17
13 14 13 9 10 8 8 7 7 9 9 10 19 25 22 13 12 10 10 7 7 6 5 4 6 6 6 6 7 8 7 6 5 5 7 9 10 12 12 14 15 15 16
6 11 4 3 4 7 5 7 7 5 1 20 22 19 14 11 13 9 10 8 7 6 5 5 5 6 6 6 6 6 6 5 4 5 7 8 10 11 13 13 14 14 15
4 2 10 4 3 1 1 2 4 4 6 12 15 14 12 10 13 10 7 7 7 6 7 6 7 7 6 6 6 6 7 5 2 5 6 7 9 11 12 12 12 14 13
3 4 5 7 4 9 5 10 11 9 6 3 11 9 13 18 18 8 9 8 10 9 9 8 8 8 8 8 7 6 6 9 8 7 5 7 8 9 10 11 12 14 11
4 5 8 11 9 9 8 11 8 7 6 5 8 13 8 8 10 13 14 16 13 14 10 9 8 8 7 8 9 11 10 8 6 6 4 5 8 8 8 10 10 12 10

GFSGL_925_spd_024.txt.gz
Wind_Speed
38 36 34 35 34 35 31 31 31 29 26 27 30 30 28 27 26 25 23 19 22 18 18 15 9 9 12 9 12 7 8 8 9 12 13 13 16 16 15 16 17 21 23
38 36 37 35 35 34 36 31 32 33 28 29 32 31 31 29 30 29 26 19 22 21 19 14 13 12 14 13 12 11 12 14 14 14 16 19 19 17 13 14 21 22 22
37 37 36 37 37 37 36 37 33 34 34 34 33 34 31 32 33 32 28 24 23 23 21 18 17 15 15 13 13 14 14 13 12 13 16 17 21 17 17 19 20 15 18
38 37 38 39 39 39 36 36 35 35 33 33 33 34 32 32 33 32 26 24 24 22 20 18 16 18 18 17 16 16 17 17 16 16 20 20 23 17 16 12 17 14 16
39 39 39 39 37 35 34 34 35 33 35 33 34 32 30 30 29 29 25 24 24 22 21 20 19 19 19 16 17 20 17 17 17 21 19 20 17 11 14 18 18 19 20
39 39 38 37 36 36 34 33 33 33 32 31 32 31 32 31 30 31 26 24 24 24 23 20 21 19 20 21 18 17 20 22 22 22 20 15 17 16 14 14 14 16 15
34 37 38 37 37 36 33 33 31 33 29 30 30 28 28 27 29 29 26 23 22 23 22 21 20 18 18 19 16 18 18 22 20 20 18 19 18 20 14 15 15 17 19
34 33 35 35 34 34 32 32 31 28 29 27 24 24 24 25 26 22 20 25 21 18 22 22 21 20 18 18 17 18 24 24 21 19 20 23 22 19 17 17 22 24 25
32 29 33 32 31 31 30 30 26 25 23 21 23 24 25 22 26 22 20 20 22 23 21 19 18 20 20 19 18 23 24 22 19 19 22 23 21 20 21 22 24 17 17
30 32 28 27 30 29 27 23 21 20 20 20 20 22 25 24 24 22 20 17 20 22 22 25 24 23 20 18 19 19 13 13 12 15 10 10 16 24 22 25 31 19 18
25 26 26 28 26 25 23 22 21 20 17 18 17 18 21 24 23 24 21 21 21 20 15 15 20 20 15 16 14 11 10 13 13 13 17 19 22 24 20 14 10 15 17
25 25 24 25 23 22 22 19 21 19 15 14 14 14 17 19 21 23 18 18 19 16 9 7 11 12 16 14 11 12 13 13 14 14 17 19 16 12 12 15 21 22 22
26 25 23 21 18 21 20 22 20 16 15 14 14 14 15 16 13 14 17 22 22 16 10 10 9 11 9 9 9 9 9 9 11 16 16 12 16 16 18 19 17 18 19
24 25 24 23 22 22 18 18 19 16 14 12 13 15 12 8 12 15 14 14 14 14 12 8 7 7 8 7 10 12 11 10 13 13 16 15 13 14 18 16 17 18 23
20 22 22 23 21 19 16 15 14 14 15 15 11 10 12 13 17 13 15 14 15 14 10 9 11 10 12 15 14 13 13 13 16 14 9 11 13 16 15 17 17 22 21
20 19 18 19 20 18 22 21 15 15 11 10 10 9 11 12 16 12 11 10 10 9 11 14 13 14 16 19 17 16 17 17 17 6 5 11 15 14 16 16 18 19 19
22 24 21 19 17 19 19 17 14 13 9 8 9 9 9 12 13 12 11 10 9 8 4 7 12 12 7 10 9 10 11 3 2 5 8 10 11 15 14 15 18 17 17
24 23 23 21 22 17 18 19 19 17 12 9 12 12 12 14 14 12 11 8 5 7 9 10 12 5 2 2 0 3 6 6 8 10 9 11 15 12 13 16 16 17 19
17 13 12 17 20 20 14 15 17 19 19 16 14 14 14 14 13 12 11 7 6 8 12 8 1 3 4 5 4 3 3 5 7 10 10 11 10 12 14 17 16 19 22
10 19 14 14 14 11 10 9 7 18 22 18 16 15 17 14 9 7 6 4 5 5 4 6 5 3 3 3 4 4 5 6 9 8 7 9 10 11 15 15 17 20 19
7 5 8 21 15 13 9 9 10 19 19 19 18 22 21 20 15 13 12 12 9 5 4 3 3 3 2 4 5 4 6 8 7 3 5 9 11 12 14 13 18 18 17
15 12 9 11 17 14 11 8 5 14 19 18 15 23 16 15 14 17 17 13 14 9 2 2 1 5 3 2 3 4 5 6 5 2 4 8 10 13 11 15 16 17 15
10 14 11 12 14 14 5 7 14 18 15 14 17 22 23 15 10 13 17 12 9 10 8 4 3 3 4 3 3 4 4 5 3 4 4 7 10 11 12 15 15 14 16
17 17 13 12 7 5 8 8 6 9 13 11 16 18 19 17 11 9 14 12 11 10 9 7 6 4 2 3 3 5 6 7 3 0 5 4 11 11 12 14 13 14 16
11 12 7 4 8 7 9 3 8 9 5 10 14 15 15 10 7 8 9 12 13 14 13 12 10 7 9 7 4 6 6 7 7 9 7 6 8 12 9 10 13 15 14
6 8 9 10 6 4 4 6 8 12 12 9 14 12 13 13 15 15 17 18 18 17 16 15 15 12 9 8 9 11 8 9 9 7 6 5 6 11 7 10 12 14 12

GFSGL_925_spd_030.txt.gz
Wind_Speed
42 41 40 42 43 43 43 36 35 35 36 36 37 36 35 34 31 30 28 24 22 21 21 20 18 15 13 11 7 4 5 6 4 4 6 5 5 7 11 16 17 19 20
43 42 41 40 38 43 43 45 37 38 38 37 35 40 40 38 34 33 32 30 27 26 22 23 21 18 19 16 15 13 11 9 7 8 12 14 14 13 14 16 16 20 19
42 41 39 38 38 43 45 42 46 41 42 38 37 38 41 41 39 36 35 33 31 28 27 26 24 21 19 19 18 15 13 12 12 10 12 16 17 17 18 18 19 18 20
43 42 40 40 42 43 43 43 43 47 44 43 41 37 38 40 42 39 37 35 33 30 29 28 28 26 25 24 21 19 16 14 14 14 16 18 18 18 16 16 16 14 20
42 42 43 43 43 40 38 40 41 43 43 43 42 39 37 37 41 41 39 37 36 34 32 27 26 29 26 24 23 22 20 20 20 17 18 18 19 20 17 13 15 18 21
41 43 42 40 39 39 38 38 38 39 40 37 38 39 38 37 39 40 39 39 37 36 34 32 27 28 28 27 26 20 23 24 23 18 18 19 22 21 17 15 15 14 5
44 40 40 39 39 39 38 35 36 36 36 39 38 37 38 40 39 38 37 38 37 34 35 33 29 29 28 25 24 20 26 25 24 22 19 21 22 20 17 15 16 17 19
41 38 38 39 38 36 36 36 34 33 34 35 36 37 39 40 40 36 33 36 35 31 31 31 27 26 27 24 22 23 25 24 22 21 22 23 20 17 18 19 18 20 22
36 38 39 40 38 36 37 36 33 32 32 33 38 38 38 37 36 33 30 31 30 26 25 27 26 26 25 20 22 22 21 23 22 20 19 16 14 15 15 17 19 18 13
38 41 42 39 38 38 37 34 32 34 33 35 34 36 36 34 32 30 28 29 27 27 25 24 22 21 20 19 24 24 24 25 19 12 9 9 11 14 15 17 18 18 16
44 43 38 40 40 38 34 32 32 32 31 31 30 30 30 29 25 24 25 27 29 29 28 26 23 23 22 21 22 22 24 20 12 9 9 11 14 11 7 1 6 7 9
37 33 34 35 36 33 34 32 32 32 29 25 24 21 22 21 20 21 20 23 24 22 21 19 17 16 16 19 22 24 19 11 10 10 9 9 6 5 8 6 8 9 10
32 32 33 34 36 36 37 32 32 31 26 24 26 27 22 21 19 17 19 22 22 19 18 13 10 10 10 13 14 12 10 11 10 10 8 6 3 5 6 10 10 11 13
33 31 31 33 32 32 33 35 32 29 28 31 23 20 22 21 20 20 22 23 24 22 16 11 10 9 9 7 9 11 13 13 12 11 9 8 8 6 8 9 12 14 16
25 31 30 28 29 30 26 21 27 28 35 30 31 32 29 23 21 22 22 22 23 22 21 14 11 11 9 9 10 12 14 14 14 12 11 9 9 7 7 9 12 13 14
27 22 20 24 28 25 31 27 21 27 14 23 24 27 26 20 19 20 15 12 13 18 16 13 14 12 12 12 14 15 15 16 15 12 10 9 8 6 7 9 9 12 15
20 19 24 24 22 27 27 31 22 14 15 18 19 16 17 19 19 19 17 15 14 16 15 14 14 14 14 16 19 17 16 13 14 12 9 6 4 6 7 5 8 13 15
26 18 23 26 27 28 29 46 33 22 16 19 21 19 20 23 22 21 18 18 19 15 14 13 12 12 12 12 9 9 10 8 8 6 3 5 5 4 4 6 10 13 16
36 19 19 20 19 27 32 31 32 25 23 25 22 21 21 22 20 20 20 18 18 16 13 10 9 10 13 13 13 13 10 8 6 6 6 3 1 0 4 8 12 13 18
25 27 24 24 26 25 21 22 24 23 23 23 24 26 24 23 22 21 19 16 15 11 14 18 19 17 14 12 11 8 7 7 6 5 5 4 3 0 5 8 11 14 18
16 19 23 25 23 22 24 23 25 24 23 23 24 26 29 26 24 22 21 20 16 15 22 20 18 15 11 10 9 8 5 5 4 5 8 7 3 2 5 8 11 14 17
17 20 20 20 19 21 25 26 28 26 24 23 25 25 22 21 22 24 22 19 19 20 21 20 19 14 8 8 9 9 9 8 7 11 10 6 4 4 4 8 11 14 17
11 12 14 15 18 18 18 21 21 24 24 23 23 24 26 24 22 23 20 19 19 19 26 22 17 16 14 9 7 9 10 10 10 11 8 5 6 6 5 9 11 12 16
10 5 9 13 15 10 9 10 21 24 26 23 22 24 27 29 25 22 20 20 20 23 27 24 19 16 16 10 9 10 10 9 11 9 7 6 5 7 6 8 10 11 14
5 2 8 14 16 17 16 13 13 12 16 23 27 28 27 27 27 23 19 20 28 27 30 24 23 21 15 9 13 12 9 11 11 11 9 10 10 8 5 4 8 10 12
12 13 15 12 10 16 15 16 15 18 21 21 20 22 24 25 27 25 21 23 28 29 33 28 24 21 15 15 17 12 10 13 12 11 12 11 10 9 5 5 6 7 9

GFSGL_925_spd_033.txt.gz
Wind_Speed
41 41 39 39 38 39 43 40 38 33 32 35 37 35 35 34 31 29 28 26 23 20 19 17 14 13 12 11 9 7 7 8 6 4 6 5 6 6 6 7 11 15 17
43 42 42 41 38 39 43 44 42 40 36 36 36 36 37 37 35 33 31 30 28 25 22 21 19 15 14 14 13 11 9 8 8 8 8 10 12 10 10 13 14 14 16
40 41 40 39 38 41 45 43 46 44 41 40 40 39 40 39 38 37 35 33 31 29 26 24 22 20 19 17 16 15 14 13 11 10 9 10 13 13 14 14 13 11 11
40 41 40 40 42 42 46 43 42 47 44 43 44 43 42 41 40 39 39 37 35 32 30 28 26 24 23 19 17 18 16 15 14 13 12 12 14 13 14 18 21 18 16
40 39 43 41 42 40 41 43 43 41 43 45 44 43 43 42 42 42 42 41 39 36 33 32 29 27 24 22 20 19 20 18 16 15 16 16 18 16 15 17 18 19 20
40 43 40 40 40 40 38 37 39 41 41 40 45 46 45 44 42 40 39 40 41 38 36 33 29 28 26 24 25 21 21 20 18 17 17 18 21 18 17 16 15 15 6
42 39 39 40 40 40 36 35 38 39 38 40 43 44 46 46 44 41 39 38 39 39 37 34 32 31 29 24 21 21 23 22 20 19 18 22 22 19 14 14 14 14 16
39 37 37 39 40 38 36 38 38 37 40 39 40 44 43 45 45 42 38 37 35 35 34 31 30 32 31 25 21 20 19 22 21 20 22 22 22 18 15 14 15 15 16
32 35 38 39 37 36 37 40 37 34 33 37 36 38 42 41 39 37 34 35 33 30 28 27 26 25 27 24 20 20 18 18 18 16 16 18 16 14 10 11 14 13 11
35 39 40 40 39 39 42 41 40 38 37 31 32 39 41 37 35 32 33 33 28 27 26 24 24 23 22 20 20 18 18 18 15 12 10 7 7 9 10 13 13 13 12
42 41 38 38 41 43 38 34 35 35 31 31 31 32 34 35 32 30 32 32 28 25 27 24 21 20 17 16 16 18 19 15 12 12 7 8 7 7 2 1 4 6 9
37 34 37 40 39 37 37 34 33 33 33 31 29 26 31 33 28 24 30 25 22 23 23 20 19 19 16 14 13 13 13 12 13 9 7 5 3 2 5 5 6 8 10
28 32 34 36 37 35 35 36 34 36 35 31 28 25 27 34 28 27 22 23 21 19 17 16 14 12 13 12 13 13 13 12 12 10 8 5 4 5 6 7 10 9 12
26 28 29 31 32 34 34 33 32 28 26 22 24 23 25 33 36 33 28 26 24 21 20 16 13 12 9 9 10 12 13 13 12 9 7 6 8 9 10 9 10 11 13
18 15 18 18 19 18 15 20 27 28 29 22 18 17 2 18 21 23 32 32 29 25 18 18 16 13 13 13 12 13 13 12 11 8 8 9 10 10 10 9 10 11 10
17 14 12 13 16 22 20 30 31 32 32 34 33 33 33 18 18 30 26 26 26 26 25 21 17 15 15 15 14 13 11 11 11 10 10 11 12 10 9 9 10 8 10
23 23 20 13 23 30 29 32 23 23 25 26 23 21 29 33 26 20 19 18 21 24 20 20 19 19 18 16 12 11 8 8 9 10 12 12 10 9 8 7 5 8 11
20 18 13 8 4 29 24 16 13 22 11 17 25 26 27 32 27 26 25 24 26 21 20 21 18 18 16 13 14 11 9 10 9 10 10 10 9 8 6 3 5 8 10
14 16 11 15 19 20 24 30 27 25 17 20 21 20 22 25 28 29 28 30 27 24 20 18 16 15 14 13 12 11 10 11 12 11 8 8 6 5 5 3 6 7 10
15 18 22 21 15 19 29 22 20 23 22 20 23 29 33 34 32 31 28 24 24 21 19 16 16 17 18 17 17 15 13 11 10 8 8 9 8 8 5 4 5 7 10
19 18 18 17 17 21 24 22 22 22 22 21 26 36 37 35 33 31 27 25 22 19 18 21 24 23 20 16 12 10 10 10 10 11 11 12 11 8 5 4 4 7 9
15 16 17 18 18 20 21 25 24 21 20 23 29 32 33 29 33 32 27 23 21 20 26 28 26 22 17 12 8 11 13 13 13 12 14 14 10 6 4 4 5 7 10
16 13 12 13 17 18 16 16 19 22 23 23 25 28 28 24 25 26 24 22 20 22 27 24 21 19 13 9 6 6 9 12 12 14 17 12 8 6 6 5 6 7 10
20 15 11 12 11 11 11 11 10 12 17 22 26 26 26 21 20 19 20 19 20 21 22 23 21 16 12 13 12 9 7 6 8 14 13 9 7 6 7 7 6 6 9
11 13 13 10 8 5 4 10 14 15 14 16 16 16 20 22 21 20 18 18 19 21 22 23 20 18 15 12 11 11 9 6 7 12 10 8 8 9 9 8 5 5 7
8 8 4 4 4 7 11 11 12 12 6 7 16 18 19 19 21 21 19 19 18 21 21 22 24 22 19 14 14 12 8 5 9 11 10 10 12 11 10 9 6 5 5

GFSGL_925_spd_036.txt.gz
Wind_Speed
40 40 40 39 40 41 44 44 41 39 35 34 31 30 34 33 31 30 29 27 25 22 20 19 17 17 15 14 12 11 11 10 7 5 7 5 6 6 4 6 7 10 14
41 41 42 41 40 41 45 46 43 40 38 36 35 35 35 37 35 35 34 32 30 27 24 22 21 19 18 15 15 14 12 12 9 7 6 6 7 7 7 9 10 11 12
38 39 38 39 38 41 45 46 45 42 41 39 37 36 37 41 39 37 37 35 33 31 29 27 26 23 22 19 19 17 15 13 12 12 9 7 7 6 6 8 8 11 12
38 38 40 41 43 46 47 44 46 46 44 43 43 41 40 41 41 39 40 38 36 34 32 30 29 28 27 23 21 18 16 15 13 13 12 11 9 9 10 12 12 13 10
36 36 40 39 41 42 41 43 44 45 47 46 46 46 45 44 44 44 43 41 40 38 36 33 32 30 27 24 22 21 19 18 17 16 13 12 12 11 11 9 13 15 15
40 42 39 37 39 41 41 42 43 45 44 43 45 47 45 47 48 46 43 42 41 40 39 37 35 30 26 26 25 23 22 21 22 19 19 17 15 12 10 9 11 10 4
42 40 39 40 40 42 40 40 43 43 40 42 41 42 46 47 47 47 45 43 41 40 39 39 37 32 31 28 26 22 22 22 22 20 21 19 16 14 9 10 10 11 12
38 35 35 38 40 37 37 39 41 40 40 40 41 44 42 45 48 49 46 44 41 40 37 37 36 33 30 27 25 22 21 21 21 22 20 18 15 13 12 11 11 11 12
33 34 36 38 38 37 38 41 40 36 37 41 37 37 41 40 45 48 46 45 37 39 37 33 31 28 26 29 25 23 20 18 15 15 15 13 11 12 11 9 9 7 7
34 39 39 40 38 38 42 42 40 36 34 31 33 38 40 40 46 46 46 40 32 30 33 30 25 22 22 20 21 22 20 18 15 12 11 9 8 7 7 8 9 7 6
37 34 36 38 41 44 42 34 33 33 31 31 34 32 36 42 44 46 44 36 33 31 28 29 24 21 18 16 17 18 20 16 13 12 13 11 8 7 6 5 4 4 6
25 27 30 34 35 31 33 30 32 34 34 34 31 30 35 38 43 42 42 46 40 33 29 27 26 22 17 15 14 15 16 15 15 15 13 11 10 9 9 5 5 5 9
15 22 22 20 20 19 21 22 21 23 26 27 28 28 28 27 30 38 41 50 41 33 26 23 23 24 19 16 15 15 16 17 17 15 15 13 11 9 7 7 6 7 9
13 17 18 17 14 11 12 15 17 20 20 19 21 23 17 18 18 19 12 18 31 19 15 15 18 17 15 16 17 18 18 18 18 16 14 13 11 8 8 8 9 10 10
6 7 9 13 18 21 23 6 5 8 14 22 25 21 21 17 30 36 48 23 3 14 19 20 19 18 19 19 17 18 16 17 17 15 15 13 10 9 10 9 10 11 7
20 19 19 22 24 25 27 29 33 25 24 25 22 15 16 22 46 37 32 33 41 36 34 25 20 20 20 20 18 17 18 19 18 16 13 11 10 10 10 9 10 9 7
23 23 25 24 22 23 25 20 16 22 18 14 7 2 9 11 26 19 44 39 38 37 28 28 29 26 20 17 18 20 21 20 18 16 14 13 12 10 10 10 10 8 6
21 25 24 27 30 28 25 21 18 18 14 17 15 12 13 26 28 37 35 32 34 25 27 27 26 21 19 20 22 21 17 17 16 15 14 13 11 10 10 11 10 8 4
18 16 18 22 22 19 14 14 11 13 12 15 23 14 25 24 26 31 27 27 23 20 22 21 21 20 22 24 21 19 18 17 16 14 14 14 12 11 12 13 11 6 2
11 10 11 12 10 7 8 8 12 14 15 20 21 17 17 24 23 22 21 23 23 24 23 23 22 23 23 20 18 17 15 15 15 16 14 13 13 13 14 11 10 5 0
15 12 15 14 10 10 10 10 10 11 16 18 16 23 24 23 23 24 20 20 25 24 23 23 23 21 19 19 17 16 16 17 16 15 14 14 15 17 14 11 9 4 1
17 12 10 10 8 10 11 9 11 13 13 17 19 24 19 26 27 26 23 22 21 20 21 22 21 23 23 19 15 14 17 17 16 15 15 16 17 16 14 11 8 4 2
17 18 16 12 10 12 11 12 13 14 16 17 19 23 17 17 19 20 19 20 20 19 19 21 26 26 22 18 14 12 13 15 16 15 17 18 19 17 13 11 7 3 2
14 12 12 13 13 13 13 11 8 9 9 8 9 11 17 18 21 21 20 20 19 18 20 23 25 25 23 20 17 14 10 9 12 15 18 20 19 14 12 11 7 3 1
14 15 14 12 14 13 13 11 4 3 2 3 3 6 9 11 14 18 21 22 20 20 23 26 26 26 25 20 17 15 13 13 11 14 18 17 13 11 11 9 7 4 2
12 11 12 8 8 15 18 16 16 14 18 16 15 15 16 16 16 19 23 24 23 23 24 26 27 27 23 21 18 17 15 13 12 14 15 13 12 11 11 9 8 5 4